Location: Gauravaram
(16.6995°N, 80.5417°E)
Time: 02:52:01
(UTC+00:00)

Meteor 1-16 Rocket - Pass Details

Date: 03 August 2024
Orbit: 789 x 906 km, 81.2° (Epoch: 09 September)

Event Time Altitude Azimuth Distance (km) Brightness Sun altitude
Exits shadow 22:51:28 - 181° (S) 2,764 6.6 -20.3°
Reaches altitude 10° 22:51:57 10° 181° (S) 2,580 6.5 -20.2°
Maximum altitude 22:57:51 80° 95° (E) 916 4.4 -18.9°
Drops below altitude 10° 23:03:41 10° 9° (N) 2,547 7.1 -17.6°
Sets 23:06:06 0° 8° (N) 3,473 7.9 -17.1°
